Location: Oshawa
(43.9000°N, 78.8670°W)
Time: 16:14:13
(UTC-04:00)

Cosmos 1821 Rocket - Pass Details

Date: 26 April 2018
Orbit: 944 x 1005 km, 82.9° (Epoch: 18 September)

Event Time Altitude Azimuth Distance (km) Brightness Sun altitude
Exits shadow 23:13:41 11° 222° (SW) 2,681 6.1 -26.2°
Maximum altitude 23:19:14 36° 286° (WNW) 1,506 5.3 -26.7°
Drops below altitude 10° 23:24:58 10° 353° (N) 2,735 7.2 -27.2°
Sets 23:27:43 0° 2° (N) 3,677 7.9 -27.5°
